Location: Unspecified
(0.0000°N, 0.0000°E)
Time: 14:48:15
(UTC+00:00)

STARLINK-35278 - Pass Details

Date: 21 February 2026
Orbit: 474 x 476 km, 53.2° (Epoch: 6 March)

Event Time Altitude Azimuth Distance (km) Brightness Sun altitude
Rises 19:54:33 0° 227° (SW) 2,536 6.9 -24.8°
Reaches altitude 10° 19:56:50 10° 236° (SW) 1,655 5.9 -25.4°
Enters shadow 20:00:00 35° 293° (WNW) 789 3.8 -26.1°
